Time,TemperatureF,DewpointF,PressureIn,WindDirection,WindDirectionDegrees,WindSpeedMPH,WindSpeedGustMPH,Humidity,HourlyPrecipIn,Conditions,Clouds,dailyrainin,SoftwareType,DateUTC
2013-01-19 00:09:00,23.4,12.0,30.21,South,187,0.0,3.0,63,0.00,,,0.00,weatherlink.com 1.10,2013-01-19 05:09:00,
2013-01-19 00:24:00,23.7,13.0,30.21,SE,134,0.0,1.0,64,0.00,,,0.00,weatherlink.com 1.10,2013-01-19 05:24:00,
2013-01-19 00:40:00,23.9,14.0,30.19,SE,143,0.0,1.0,65,0.00,,,0.00,weatherlink.com 1.10,2013-01-19 05:40:00,
2013-01-19 00:55:00,24.3,14.0,30.18,South,173,0.0,2.0,64,0.00,,,0.00,weatherlink.com 1.10,2013-01-19 05:55:00,
2013-01-19 01:12:00,24.9,13.0,30.17,SSE,155,3.0,7.0,61,0.00,,,0.00,weatherlink.com 1.10,2013-01-19 06:12:00,
2013-01-19 01:25:00,25.5,13.0,30.17,South,190,2.0,6.0,60,0.00,,,0.00,weatherlink.com 1.10,2013-01-19 06:25:00,
2013-01-19 01:40:00,25.9,16.0,30.17,SSE,157,0.0,1.0,65,0.00,,,0.00,weatherlink.com 1.10,2013-01-19 06:40:00,
2013-01-19 01:55:00,25.6,15.0,30.17,East,84,0.0,4.0,64,0.00,,,0.00,weatherlink.com 1.10,2013-01-19 06:55:00,
2013-01-19 02:10:00,25.8,14.0,30.15,SSE,165,0.0,9.0,60,0.00,,,0.00,weatherlink.com 1.10,2013-01-19 07:10:00,
2013-01-19 02:25:00,26.5,14.0,30.15,SE,125,3.0,3.0,59,0.00,,,0.00,weatherlink.com 1.10,2013-01-19 07:25:00,
2013-01-19 02:40:00,27.3,15.0,30.15,ENE,66,1.0,4.0,59,0.00,,,0.00,weatherlink.com 1.10,2013-01-19 07:40:00,
2013-01-19 02:55:00,27.9,15.0,30.14,SW,227,0.0,8.0,58,0.00,,,0.00,weatherlink.com 1.10,2013-01-19 07:55:00,
2013-01-19 03:10:00,28.3,15.0,30.13,WNW,299,3.0,10.0,57,0.00,,,0.00,weatherlink.com 1.10,2013-01-19 08:10:00,
2013-01-19 03:25:00,28.7,15.0,30.11,SSW,213,1.0,9.0,57,0.00,,,0.00,weatherlink.com 1.10,2013-01-19 08:25:00,
2013-01-19 03:40:00,29.0,15.0,30.10,SSW,207,2.0,9.0,56,0.00,,,0.00,weatherlink.com 1.10,2013-01-19 08:40:00,
2013-01-19 03:55:00,29.3,15.0,30.09,NW,311,0.0,10.0,55,0.00,,,0.00,weatherlink.com 1.10,2013-01-19 08:55:00,
2013-01-19 04:10:00,29.5,15.0,30.08,SW,214,0.0,12.0,56,0.00,,,0.00,weatherlink.com 1.10,2013-01-19 09:10:00,
2013-01-19 04:25:00,29.8,15.0,30.08,WSW,252,1.0,11.0,55,0.00,,,0.00,weatherlink.com 1.10,2013-01-19 09:25:00,
2013-01-19 04:40:00,30.1,15.0,30.08,WNW,283,3.0,12.0,54,0.00,,,0.00,weatherlink.com 1.10,2013-01-19 09:40:00,
2013-01-19 04:55:00,30.3,16.0,30.07,WSW,251,3.0,7.0,55,0.00,,,0.00,weatherlink.com 1.10,2013-01-19 09:55:00,
2013-01-19 05:10:00,30.5,16.0,30.07,WSW,247,3.0,9.0,55,0.00,,,0.00,weatherlink.com 1.10,2013-01-19 10:10:00,
2013-01-19 05:25:00,30.7,16.0,30.06,West,267,0.0,14.0,54,0.00,,,0.00,weatherlink.com 1.10,2013-01-19 10:25:00,
2013-01-19 05:40:00,30.9,16.0,30.06,WSW,237,2.0,10.0,54,0.00,,,0.00,weatherlink.com 1.10,2013-01-19 10:40:00,
2013-01-19 05:56:00,31.2,16.0,30.05,SW,232,5.0,15.0,54,0.00,,,0.00,weatherlink.com 1.10,2013-01-19 10:56:00,
2013-01-19 06:11:00,31.3,17.0,30.05,SSW,207,0.0,10.0,55,0.00,,,0.00,weatherlink.com 1.10,2013-01-19 11:11:00,
2013-01-19 07:56:00,32.9,17.0,30.03,SW,224,2.0,11.0,53,0.00,,,0.00,weatherlink.com 1.10,2013-01-19 12:56:00,
2013-01-19 08:11:00,33.1,18.0,30.04,SSW,192,0.0,16.0,54,0.00,,,0.00,weatherlink.com 1.10,2013-01-19 13:11:00,
2013-01-19 08:26:00,33.3,18.0,30.04,SW,215,1.0,11.0,53,0.00,,,0.00,weatherlink.com 1.10,2013-01-19 13:26:00,
2013-01-19 08:41:00,33.5,18.0,30.04,SW,225,2.0,13.0,54,0.00,,,0.00,weatherlink.com 1.10,2013-01-19 13:41:00,
2013-01-19 08:56:00,33.6,18.0,30.04,WSW,248,0.0,13.0,54,0.00,,,0.00,weatherlink.com 1.10,2013-01-19 13:56:00,
2013-01-19 09:11:00,33.6,18.0,30.04,SSE,164,3.0,10.0,54,0.00,,,0.00,weatherlink.com 1.10,2013-01-19 14:11:00,
2013-01-19 09:26:00,33.9,19.0,30.04,SW,222,1.0,13.0,54,0.00,,,0.00,weatherlink.com 1.10,2013-01-19 14:26:00,
2013-01-19 09:41:00,34.2,19.0,30.03,WSW,246,1.0,14.0,53,0.00,,,0.00,weatherlink.com 1.10,2013-01-19 14:41:00,
2013-01-19 09:56:00,34.4,19.0,30.04,West,273,10.0,13.0,53,0.00,,,0.00,weatherlink.com 1.10,2013-01-19 14:56:00,
2013-01-19 10:11:00,34.7,19.0,30.04,SW,214,4.0,12.0,53,0.00,,,0.00,weatherlink.com 1.10,2013-01-19 15:11:00,
2013-01-19 10:26:00,35.1,19.0,30.03,SSW,206,9.0,14.0,53,0.00,,,0.00,weatherlink.com 1.10,2013-01-19 15:26:00,
2013-01-19 10:41:00,35.6,20.0,30.03,South,190,0.0,10.0,54,0.00,,,0.00,weatherlink.com 1.10,2013-01-19 15:41:00,
2013-01-19 10:56:00,36.1,21.0,30.03,SW,225,0.0,8.0,54,0.00,,,0.00,weatherlink.com 1.10,2013-01-19 15:56:00,
2013-01-19 11:11:00,36.4,21.0,30.02,SW,231,7.0,10.0,54,0.00,,,0.00,weatherlink.com 1.10,2013-01-19 16:11:00,
2013-01-19 11:26:00,37.2,21.0,30.00,SSW,213,3.0,11.0,52,0.00,,,0.00,weatherlink.com 1.10,2013-01-19 16:26:00,
2013-01-19 11:42:00,37.8,21.0,29.99,SW,236,4.0,13.0,51,0.00,,,0.00,weatherlink.com 1.10,2013-01-19 16:42:00,
2013-01-19 11:57:00,38.2,22.0,29.98,WSW,251,1.0,9.0,52,0.00,,,0.00,weatherlink.com 1.10,2013-01-19 16:57:00,
2013-01-19 12:12:00,38.3,21.0,29.99,SW,222,5.0,11.0,51,0.00,,,0.00,weatherlink.com 1.10,2013-01-19 17:12:00,
2013-01-19 12:27:00,38.5,22.0,29.98,WSW,249,1.0,12.0,52,0.00,,,0.00,weatherlink.com 1.10,2013-01-19 17:27:00,
2013-01-19 12:42:00,38.8,23.0,29.98,WSW,254,0.0,11.0,54,0.00,,,0.00,weatherlink.com 1.10,2013-01-19 17:42:00,
2013-01-19 12:57:00,39.1,23.0,29.98,WSW,249,0.0,8.0,52,0.00,,,0.00,weatherlink.com 1.10,2013-01-19 17:57:00,
2013-01-19 13:12:00,39.3,23.0,29.97,SW,217,5.0,10.0,52,0.00,,,0.00,weatherlink.com 1.10,2013-01-19 18:12:00,
2013-01-19 13:27:00,39.6,24.0,29.97,SW,230,1.0,8.0,54,0.00,,,0.00,weatherlink.com 1.10,2013-01-19 18:27:00,
2013-01-19 13:42:00,39.9,23.0,29.96,SSW,200,4.0,7.0,52,0.00,,,0.00,weatherlink.com 1.10,2013-01-19 18:42:00,
2013-01-19 14:42:00,40.7,24.0,29.94,SW,231,0.0,5.0,52,0.01,,,0.01,weatherlink.com 1.10,2013-01-19 19:42:00,
2013-01-19 15:12:00,41.4,24.0,29.94,WSW,239,0.0,6.0,51,0.02,,,0.02,weatherlink.com 1.10,2013-01-19 20:12:00,
2013-01-19 15:27:00,41.4,25.0,29.93,South,184,3.0,4.0,53,0.02,,,0.02,weatherlink.com 1.10,2013-01-19 20:27:00,
2013-01-19 15:42:00,41.3,25.0,29.93,South,173,0.0,6.0,53,0.01,,,0.02,weatherlink.com 1.10,2013-01-19 20:42:00,
2013-01-19 16:12:00,41.0,26.0,29.91,South,182,0.0,4.0,55,0.00,,,0.02,weatherlink.com 1.10,2013-01-19 21:12:00,
2013-01-19 16:27:00,40.7,25.0,29.91,South,189,0.0,3.0,54,0.00,,,0.02,weatherlink.com 1.10,2013-01-19 21:27:00,
2013-01-19 16:42:00,40.4,25.0,29.90,South,175,0.0,4.0,55,0.00,,,0.02,weatherlink.com 1.10,2013-01-19 21:42:00,
2013-01-19 16:57:00,39.9,25.0,29.90,South,179,0.0,2.0,55,0.00,,,0.02,weatherlink.com 1.10,2013-01-19 21:57:00,
2013-01-19 17:12:00,39.4,25.0,29.89,South,191,0.0,2.0,56,0.00,,,0.02,weatherlink.com 1.10,2013-01-19 22:12:00,
2013-01-19 17:42:00,39.3,26.0,29.88,South,175,0.0,4.0,59,0.00,,,0.02,weatherlink.com 1.10,2013-01-19 22:42:00,
2013-01-19 18:27:00,40.7,26.0,29.86,South,190,0.0,8.0,57,0.00,,,0.02,weatherlink.com 1.10,2013-01-19 23:27:00,
2013-01-19 18:57:00,41.5,26.0,29.85,SW,214,3.0,12.0,55,0.00,,,0.02,weatherlink.com 1.10,2013-01-19 23:57:00,
2013-01-19 19:27:00,42.3,26.0,29.84,SSW,208,0.0,10.0,53,0.00,,,0.02,weatherlink.com 1.10,2013-01-20 00:27:00,
2013-01-19 19:58:00,43.0,26.0,29.82,SSE,159,2.0,9.0,51,0.00,,,0.02,weatherlink.com 1.10,2013-01-20 00:58:00,
2013-01-19 20:13:00,43.2,26.0,29.81,SW,215,10.0,10.0,50,0.00,,,0.02,weatherlink.com 1.10,2013-01-20 01:13:00,
2013-01-19 20:28:00,43.3,25.0,29.80,SSW,192,0.0,10.0,49,0.00,,,0.02,weatherlink.com 1.10,2013-01-20 01:28:00,
2013-01-19 20:43:00,43.5,25.0,29.79,SSW,200,0.0,9.0,48,0.00,,,0.02,weatherlink.com 1.10,2013-01-20 01:43:00,
2013-01-19 20:58:00,43.5,25.0,29.79,SSW,205,1.0,8.0,48,0.00,,,0.02,weatherlink.com 1.10,2013-01-20 01:58:00,
2013-01-19 21:13:00,43.3,25.0,29.78,SSW,208,0.0,5.0,49,0.00,,,0.02,weatherlink.com 1.10,2013-01-20 02:13:00,
2013-01-19 21:28:00,43.3,25.0,29.77,WSW,242,1.0,5.0,48,0.00,,,0.02,weatherlink.com 1.10,2013-01-20 02:28:00,
2013-01-19 21:43:00,43.5,25.0,29.77,WNW,295,0.0,9.0,49,0.00,,,0.02,weatherlink.com 1.10,2013-01-20 02:43:00,
2013-01-19 21:58:00,43.7,25.0,29.76,NW,311,0.0,13.0,48,0.00,,,0.02,weatherlink.com 1.10,2013-01-20 02:58:00,
2013-01-19 22:13:00,44.0,26.0,29.75,SSW,192,3.0,12.0,49,0.00,,,0.02,weatherlink.com 1.10,2013-01-20 03:13:00,
2013-01-19 22:43:00,44.3,26.0,29.73,SSW,209,8.0,13.0,49,0.00,,,0.02,weatherlink.com 1.10,2013-01-20 03:43:00,
2013-01-19 22:58:00,44.2,27.0,29.72,SW,222,2.0,10.0,51,0.00,,,0.02,weatherlink.com 1.10,2013-01-20 03:58:00,
2013-01-19 23:13:00,44.2,26.0,29.71,South,191,6.0,12.0,50,0.00,,,0.02,weatherlink.com 1.10,2013-01-20 04:13:00,
2013-01-19 23:27:00,44.3,27.0,29.71,SSE,168,9.0,14.0,50,0.00,,,0.02,weatherlink.com 1.10,2013-01-20 04:27:00,
2013-01-19 23:43:00,44.5,26.0,29.70,WSW,237,6.0,15.0,49,0.00,,,0.02,weatherlink.com 1.10,2013-01-20 04:43:00,
2013-01-19 23:58:00,44.4,27.0,29.69,SSW,213,2.0,11.0,50,0.00,,,0.02,weatherlink.com 1.10,2013-01-20 04:58:00,